Content
SEND FEEDBACK

Daily
Averages
Monthly
Summary
United States of America

GALLATIN, MISSOURI


Home > North America > United States > Missouri
Elevation: 791 feet     Latitude: 39 55N     Longitude: 093 57W

WEATHER
 
SELECT A DAY
Number of Records: 136,456;   Date Range: 5/21/98 - 8/30/14
 
SHARE

PRINT THIS DATA

[ ← Previous Day ]
WEATHER ALMANAC - JANUARY 23, 2013
[ Next Day → ]
[ °C ]   °F
Weather ElementAverageHighLow
Temperature24.8 °F43 °F (2:52 pm)10.9 °F (5:52 am)
Dewpoint12.5 °F19 °F (2:52 pm)7 °F (4:52 am)
Humidity62.4 %88 % (7:52 am)38 % (1:52 pm)
Barometer30.35 in30.53 in (11:52 pm)30.24 in (1:52 pm)
Wind Speed6.5 mph11.5 mph (1:52 pm)
Wind Gust18.4 mph (8:52 pm)
Weather ElementAverage
Wind DirectionWSW (232.6 °)

Weather ElementTotal
Precipitation---
Heating Degree Days38.1 (Base 65)
Averaged from 23 records on January 23, 2013
WEATHER CONDITIONS BREAKOUT
WIND DIRECTION BREAKOUT
WEATHER BY HOUR - JANUARY 23, 2013
[ °C ]   °F
Local TimeTemperatureDewpointHumidityBarometerVisibilityWind DirectionWind SpeedGust SpeedPrecipitationEventsConditions
1:52 AM12.9 °F9.0 °F84 %30.38 inSE (130°)3.5 mph
2:52 AM12.9 °F9.0 °F84 %30.37 inCalm
3:52 AM12.9 °F8.1 °F81 %30.35 inSE (130°)3.5 mph
4:52 AM12.0 °F7.0 °F80 %30.34 inCalm
5:52 AM10.9 °F7.0 °F84 %30.34 inCalm
6:52 AM10.9 °F7.0 °F84 %30.33 inSSE (160°)3.5 mph
7:52 AM10.9 °F8.1 °F88 %30.31 inSouth (170°)3.5 mph
8:52 AM16.0 °F10.0 °F77 %30.32 inVariable3.5 mph
9:52 AM21.0 °F12.0 °F68 %30.33 inSW (220°)4.6 mph
10:52 AM28.0 °F15.1 °F58 %30.31 inSSW (210°)5.8 mph
11:52 AM34.0 °F17.1 °F50 %30.28 inWNW (290°)8.1 mph
12:52 PM39.0 °F18.0 °F43 %30.25 inWNW (290°)9.2 mph
1:52 PM42.1 °F18.0 °F38 %30.24 inNW (310°)11.5 mph
2:52 PM43.0 °F19.0 °F38 %30.25 inNW (320°)9.2 mph
3:52 PM42.1 °F19.0 °F40 %30.26 inNW (310°)10.4 mph
4:52 PM37.9 °F18.0 °F45 %30.29 inNorth (350°)11.5 mph
5:52 PM35.1 °F16.0 °F46 %30.33 inNNW (340°)9.2 mph
6:52 PM30.9 °F15.1 °F52 %30.37 inNorth (350°)9.2 mph17.3 mph
7:52 PM28.0 °F14.0 °F56 %30.40 inNorth (350°)8.1 mph
8:52 PM26.1 °F12.9 °F58 %30.43 inNorth (350°)10.4 mph18.4 mph
9:52 PM24.1 °F12.0 °F60 %30.46 inNorth (350°)9.2 mph
10:52 PM21.0 °F9.0 °F60 %30.49 inNorth (360°)6.9 mph
11:52 PM19.0 °F8.1 °F62 %30.53 inNorth (360°)9.2 mph
Hourly data recorded from KCDJ, located miles away from Gallatin, Missouri







STORIES FROM OUR PARTNERS